Find Starlink 30308

NORAD ID: 57742 Int'l Des: 2023-131 Owner: SPXS Country: US Constellation: starlink operational
LEOCIRCULAR

Live Position

Loading 3D Globe...

About Starlink 30308

Description loading...

Upcoming Passes

Passes for default location (London). Set your location on the main map for personalized predictions.

Altitude History

Loading altitude history...

Two-Line Element Set

1 57742U 23131L 26121.76648093 .00000274 00000-0 19498-4 0 9998
2 57742 43.0038 232.7290 0001818 278.4572 81.6073 15.27579252148040
Epoch: May 1, 2026 • Age: 10 hours

Current Status

Altitude 482.3 km
Velocity 7.63 km/s
Sub-Earth Point 14.12°N, 32.56°W
Launch Date Sep 1, 2023
Age 2.6 years
Type internet

Technical Details

Classification Payload
Mass 730.00 kg
Dry Mass 700.00 kg
Total Mass 730.00 kg
Length 0.30 m
Diameter 4.10 m
Span 29.00 m
Shape Box + pan
Manufacturer SPXS
Bus Type Starlink V2M
Phase Status In Orbit
Owner/State SPXS/US

Most Searched